Вернуться в каталог

FENGYUN 1C DEB

АктивенSSO
NORAD 30264·DEBRIS·🇨🇳 China

Запущен May 10, 1999 с Taiyuan Satellite Launch Center

Loading…

Ближайшие Пролёты (ближайшие 24 часа)

TLE

СвежийSource: Space-Track

Эпоха: Sep 13, 2026, 15:16 UTC

1 30264U 99025XZ  26256.63632608  .00001160  00000-0  66669-3 0  9999
2 30264  98.9501 314.8026 0105299 236.9980 277.4056 14.08544914  4269

Отслеживайте FENGYUN 1C DEB в реальном времени с AllMySat

Download on the App Store